Location: Unspecified
(48.5670°N, 0.0000°E)
Time: 14:37:54
(UTC+00:00)

Altair - Pass Details

Date: 31 August 2019
Orbit: 1501 x 1683 km, 47.2° (Epoch: 21 September)

Event Time Altitude Azimuth Distance (km) Brightness Sun altitude
Exits shadow 01:40:43 53° 209° (SSW) 1,942 7.5 -28.5°
Maximum altitude 01:43:02 66° 157° (SSE) 1,745 7.5 -28.4°
Drops below altitude 10° 01:52:31 10° 78° (ENE) 3,773 10.0 -27.6°
Sets 01:55:33 0° 76° (ENE) 4,735 10.7 -27.3°
